Location: Cointrin
(46.2167°N, 6.1167°E)
Time: 10:05:58
(UTC+00:00)

AO-85 - Pass Details

Date: 08 December 2023
Orbit: 516 x 753 km, 64.8° (Epoch: 04 January)

Event Time Altitude Azimuth Distance (km) Brightness Sun altitude
Rises 17:55:02 0° 330° (NNW) 2,843 ? -20.8°
Reaches altitude 10° 17:57:47 10° 348° (NNW) 1,982 ? -21.3°
Enters shadow 17:59:07 15° 4° (N) 1,672 ? -21.5°
